(135176) = 2001 QG278

Discovered at Socorro on 2001-08-19 by LINEAR.

Orbit

Orbit type: Main Belt

Note: WebGL enabled browser required.

epoch2024-03-31.0
epoch JD2460400.5
perihelion date2022-08-07.54348
perihelion JD2459799.04348
argument of perihelion (°)288.73753
ascending node (°)105.09512
inclination (°)16.71489
eccentricity0.2186514
perihelion distance (AU)2.3262658
Tisserand w.r.t. Jupiter3.2
ΔV w.r.t. Earth (km/sec)10.8
semimajor axis (AU)2.9772445
mean anomaly (°)115.39482
mean daily motion (°/day)0.19185900
aphelion distance (AU)3.628
period (years)5.14
P-vector [x]0.79203509
P-vector [y]0.60960632
P-vector [z]-0.03256602
Q-vector [x]-0.54366459
Q-vector [y]0.72861481
Q-vector [z]0.41659245
absolute magnitude15.47
phase slope0.15
uncertainty0
referenceMPEC 2024-E179
observations used580
oppositions17
arc length (days)8265
first opposition used2001
last opposition used2024
residual rms (arc-secs)0.73
perturbers coarse indicatorM-v
perturbers precise indicator003Ek
first observation date used2001-07-27.0
last observation date used2024-03-13.0
computer nameMPCLINUX
JD of orbit computation2456731.605175
perihelion JD uncertainty (days)1.0982E-04
argument of perihelion uncertainty (°)2.6411E-05
ascending node uncertainty (°)1.7591E-05
inclination uncertainty (°)9.6817E-06
eccentricity uncertainty 6.0014E-08
perihelion distance uncertainty (AU)1.6779E-07
Minimum Orbit Intersection Distances (in AU)
for orbit epoch: 2460400.5, reference: E2024-GF4
Mercury2.00814
Venus1.63107
Earth1.39589
Mars0.94813
Jupiter1.99751
Saturn6.18689
Uranus15.1254
Neptune27.1375

Observations

591 total observations over interval: 2001 07 27.44409 – 2024 03 13.296996
These data are available for download (format description).

Date (UT) J2000 RA J2000 Dec Magn Location Ref
2001 07 27.44409 00 32 03.52 -17 29 13.6 20.1   644 – Palomar Mountain/NEAT MPS 37908
2001 07 27.45401 00 32 03.80 -17 29 18.2 19.8   644 – Palomar Mountain/NEAT MPS 37908
2001 07 27.46503 00 32 04.15 -17 29 23.4 20.2   644 – Palomar Mountain/NEAT MPS 37908
2001 08 19.34175 00 37 09.50 -21 05 25.2 19.1   704 – Lincoln Laboratory ETS, New Mexico MPS 34934
2001 08 19.35438 00 37 09.38 -21 05 34.5 19.5   704 – Lincoln Laboratory ETS, New Mexico MPS 34934
2001 08 19.36706 00 37 09.29 -21 05 42.1 19.5   704 – Lincoln Laboratory ETS, New Mexico MPS 34934
2001 08 19.37977 00 37 09.25 -21 05 50.5 19.4   704 – Lincoln Laboratory ETS, New Mexico MPS 34934
2001 08 19.39248 00 37 09.17 -21 05 58.3 19.3   704 – Lincoln Laboratory ETS, New Mexico MPS 34934
2001 08 24.31102 00 36 26.99 -21 59 24.6 19.0   644 – Palomar Mountain/NEAT MPS 34934
2001 08 24.32148 00 36 26.83 -21 59 31.5 19.0   644 – Palomar Mountain/NEAT MPS 34934
2001 08 24.33193 00 36 26.68 -21 59 38.1 18.9   644 – Palomar Mountain/NEAT MPS 34934
2001 09 11.35347 00 28 43.49 -25 08 38.1 19.7   704 – Lincoln Laboratory ETS, New Mexico MPS 37908
2001 09 11.36812 00 28 42.95 -25 08 45.6 20.4   704 – Lincoln Laboratory ETS, New Mexico MPS 37908
2001 09 11.38275 00 28 42.27 -25 08 52.1 20.6   704 – Lincoln Laboratory ETS, New Mexico MPS 37908
2001 09 11.39736 00 28 41.68 -25 09 00.7 20.2   704 – Lincoln Laboratory ETS, New Mexico MPS 37908
2001 09 11.41201 00 28 41.11 -25 09 08.8 20.0   704 – Lincoln Laboratory ETS, New Mexico MPS 37908
2002 12 31.36851 09 18 15.80 +23 34 39.2 19.8   704 – Lincoln Laboratory ETS, New Mexico MPS 81433
2002 12 31.38330 09 18 15.31 +23 34 45.4 20.0   704 – Lincoln Laboratory ETS, New Mexico MPS 81433
2002 12 31.39797 09 18 14.85 +23 34 54.9 19.8   704 – Lincoln Laboratory ETS, New Mexico MPS 81433
2002 12 31.41294 09 18 14.40 +23 35 04.3 19.9   704 – Lincoln Laboratory ETS, New Mexico MPS 81433
2002 12 31.42797 09 18 14.05 +23 35 12.9 19.9   704 – Lincoln Laboratory ETS, New Mexico MPS 81433
2003 01 05.30531 09 15 41.35 +24 19 50.5 19.0 R 699 – Lowell Observatory-LONEOS MPS 73947
2003 01 05.31595 09 15 41.14 +24 19 56.7   699 – Lowell Observatory-LONEOS MPS 73947
2003 01 05.32666 09 15 40.69 +24 20 01.6   699 – Lowell Observatory-LONEOS MPS 73947
2003 01 05.33730 09 15 40.28 +24 20 07.7   699 – Lowell Observatory-LONEOS MPS 73947
2003 01 30.31043 08 55 47.23 +28 08 18.6 19.5   704 – Lincoln Laboratory ETS, New Mexico MPS 71429
2003 01 30.32581 08 55 46.29 +28 08 25.8 19.6   704 – Lincoln Laboratory ETS, New Mexico MPS 71429
2003 01 30.34131 08 55 45.31 +28 08 33.9 19.9   704 – Lincoln Laboratory ETS, New Mexico MPS 71429
2003 01 30.35676 08 55 44.59 +28 08 40.5 19.9   704 – Lincoln Laboratory ETS, New Mexico MPS 71429
2003 01 30.37219 08 55 43.69 +28 08 48.9 19.7   704 – Lincoln Laboratory ETS, New Mexico MPS 71429
2003 01 31.32116 08 54 51.44 +28 16 29.9 18.9 R 699 – Lowell Observatory-LONEOS MPS 71429
2003 01 31.34607 08 54 50.09 +28 16 41.9   699 – Lowell Observatory-LONEOS MPS 71429
2003 01 31.36281 08 54 49.13 +28 16 49.4   699 – Lowell Observatory-LONEOS MPS 71429
2003 01 31.37959 08 54 48.23 +28 16 57.6   699 – Lowell Observatory-LONEOS MPS 71429
2003 02 04.20193 08 51 18.65 +28 46 25.1 18.9 R 699 – Lowell Observatory-LONEOS MPS 73192
2003 02 04.21525 08 51 17.87 +28 46 31.4   699 – Lowell Observatory-LONEOS MPS 73192
2003 02 04.22859 08 51 17.17 +28 46 37.1   699 – Lowell Observatory-LONEOS MPS 73192
2003 02 04.24193 08 51 16.45 +28 46 42.7   699 – Lowell Observatory-LONEOS MPS 73192
2005 06 05.330357 16 50 49.194 -09 34 31.34 20.39 V 645 – Apache Point-Sloan Digital Sky Survey MPS 389968
2005 06 05.333829 16 50 49.011 -09 34 31.56 21.23   645 – Apache Point-Sloan Digital Sky Survey MPS 389968
2005 06 07.239797 16 49 11.337 -09 37 17.67 20.66 V 645 – Apache Point-Sloan Digital Sky Survey MPS 389968
2005 06 07.243269 16 49 11.158 -09 37 17.93 21.59   645 – Apache Point-Sloan Digital Sky Survey MPS 389968
2005 06 08.90952 16 47 45.79 -09 39 59.0   621 – Bergisch Gladbach MPS 136480
2005 06 08.92121 16 47 45.20 -09 40 00.4   621 – Bergisch Gladbach MPS 136480
2005 06 08.93097 16 47 44.72 -09 40 00.1 20 R 621 – Bergisch Gladbach MPS 136480
2005 06 09.90893 16 46 54.80 -09 41 42.7   621 – Bergisch Gladbach MPS 136480
2005 06 09.92064 16 46 54.17 -09 41 41.7   621 – Bergisch Gladbach MPS 136480
2005 06 09.93232 16 46 53.51 -09 41 43.9 21 R 621 – Bergisch Gladbach MPS 136480
2005 06 27.22779 16 33 12.96 -10 24 18.8 20.7 V 691 – Steward Observatory, Kitt Peak-Spacewatch MPS 136911
2005 06 27.24343 16 33 12.29 -10 24 21.7 20.8 V 691 – Steward Observatory, Kitt Peak-Spacewatch MPS 136911
2005 06 27.25921 16 33 11.61 -10 24 24.7 20.8 V 691 – Steward Observatory, Kitt Peak-Spacewatch MPS 136911
2005 06 30.22479 16 31 10.70 -10 34 04.2 20.9 V 691 – Steward Observatory, Kitt Peak-Spacewatch MPS 136911
2005 06 30.24035 16 31 10.08 -10 34 06.9 20.8 V 691 – Steward Observatory, Kitt Peak-Spacewatch MPS 136911
2005 06 30.25591 16 31 09.43 -10 34 10.0 20.8 V 691 – Steward Observatory, Kitt Peak-Spacewatch MPS 136911
2005 07 04.22662 16 28 40.24 -10 48 06.9 21.0 V 691 – Steward Observatory, Kitt Peak-Spacewatch MPS 137400
2005 07 04.24216 16 28 39.68 -10 48 09.8 20.8 V 691 – Steward Observatory, Kitt Peak-Spacewatch MPS 137400
2005 07 04.25770 16 28 39.12 -10 48 13.5 21.0 V 691 – Steward Observatory, Kitt Peak-Spacewatch MPS 137400
2006 07 30.58548 23 12 36.14 -24 02 10.5 19.1 V E12 – Siding Spring Survey MPS 175409
2006 07 30.59650 23 12 35.96 -24 02 17.6 19.1 V E12 – Siding Spring Survey MPS 175409
2006 07 30.60766 23 12 35.89 -24 02 24.6 19.3 V E12 – Siding Spring Survey MPS 175409
2006 07 30.61902 23 12 35.74 -24 02 32.7 19.1 V E12 – Siding Spring Survey MPS 175409
2006 08 16.70483 23 06 15.98 -27 16 35.1 19.3 V E12 – Siding Spring Survey MPS 175682
2006 08 16.70816 23 06 15.87 -27 16 36.0 18.2 V E12 – Siding Spring Survey MPS 175682
2006 08 16.72130 23 06 15.33 -27 16 47.0 19.4 V E12 – Siding Spring Survey MPS 175682
2006 08 16.72464 23 06 15.37 -27 16 48.7 18.5 V E12 – Siding Spring Survey MPS 175682
2006 08 16.73782 23 06 14.76 -27 16 55.5 19.5 V E12 – Siding Spring Survey MPS 175682
2006 08 16.74118 23 06 14.72 -27 16 59.4 19.0 V E12 – Siding Spring Survey MPS 175682
2006 08 16.75439 23 06 14.18 -27 17 08.2 19.6 V E12 – Siding Spring Survey MPS 175682
2006 08 16.75773 23 06 14.07 -27 17 09.3 19.1 V E12 – Siding Spring Survey MPS 175682
2006 08 25.68407 23 00 30.67 -28 53 47.4 18.7 V E12 – Siding Spring Survey MPS 175947
2006 08 25.69568 23 00 30.13 -28 53 54.9 18.8 V E12 – Siding Spring Survey MPS 175947
2006 08 25.70738 23 00 29.62 -28 54 02.0 18.9 V E12 – Siding Spring Survey MPS 175947
2006 08 25.71905 23 00 29.12 -28 54 09.1 19.1 V E12 – Siding Spring Survey MPS 175947
2007 11 03.49242 08 14 47.43 +17 50 55.3 19.4 V 703 – Catalina Sky Survey MPS 226476
2007 11 03.49843 08 14 47.72 +17 50 53.9 21.0 V 703 – Catalina Sky Survey MPS 226476
2007 11 03.50444 08 14 48.01 +17 50 55.1 20.0 V 703 – Catalina Sky Survey MPS 226476
2007 11 03.51046 08 14 48.15 +17 50 56.6 19.6 V 703 – Catalina Sky Survey MPS 226476
2007 11 11.46202 08 19 48.64 +18 10 35.3 19.8 V G96 – Mt. Lemmon Survey MPS 228051
2007 11 11.46985 08 19 48.90 +18 10 36.7 19.8 V G96 – Mt. Lemmon Survey MPS 228051
2007 11 11.47774 08 19 49.15 +18 10 38.2 19.6 V G96 – Mt. Lemmon Survey MPS 228051
2007 11 11.48557 08 19 49.40 +18 10 39.2 19.7 V G96 – Mt. Lemmon Survey MPS 228051
2007 12 06.35123 08 25 01.26 +20 07 34.3 19.5 C 704 – Lincoln Laboratory ETS, New Mexico MPS 287838
2007 12 06.36402 08 25 01.16 +20 07 38.9 20.1 C 704 – Lincoln Laboratory ETS, New Mexico MPS 287838
2007 12 06.37691 08 25 01.02 +20 07 45.5 19.4 C 704 – Lincoln Laboratory ETS, New Mexico MPS 287838
2007 12 06.38970 08 25 00.92 +20 07 48.4 19.0 C 704 – Lincoln Laboratory ETS, New Mexico MPS 287838
2007 12 06.40250 08 25 00.73 +20 07 53.9 20.0 C 704 – Lincoln Laboratory ETS, New Mexico MPS 287838
2007 12 06.41228 08 25 00.73 +20 07 57.2 19.8 V G96 – Mt. Lemmon Survey MPS 230767
2007 12 06.41884 08 25 00.66 +20 08 00.0 19.9 V G96 – Mt. Lemmon Survey MPS 230767
2007 12 06.42563 08 25 00.58 +20 08 02.9 19.9 V G96 – Mt. Lemmon Survey MPS 230767
